Regional Weather Roundup
Issued by NWS Charleston, SC

Current Version | Previous Version | Text Only | Print | Product List | Glossary Off
Versions: 1 2 3 4 5 6 7 8 9 10 11 12 13 14 15 16 17 18 19 20 21 22 23 24 25 26 27 28 29 30 31 32 33 34 35 36 37 38 39 40 41 42 43 44 45 46 47 48 49 50

000
ASUS42 KCHS 241012
RWRCHS

REGIONAL WEATHER ROUNDUP
NATIONAL WEATHER SERVICE CHARLESTON SC
600 AM EDT SAT JUN 24 2017

NOTE: "FAIR" INDICATES FEW OR NO CLOUDS BELOW 12,000 FEET WITH NO
SIGNIFICANT WEATHER AND/OR OBSTRUCTIONS TO VISIBILITY.

NOT ALL STATIONS ARE QUALITY CONTROLLED. USE DATA WITH CAUTION...
ESPECIALLY DEWPOINT OBSERVATIONS.

SCZ027-030-031-034>040-042>050-241100-
...SOUTHEAST SOUTH CAROLINA...

CITY           SKY/WX    TMP DP  RH WIND       PRES   REMARKS
N CHARLESTON   MOCLDY    79  75  87 SW9       29.98R
WATERFRONT PRK   N/A     81  78  91 SW8       29.95S
JOHNS ISLAND   CLOUDY    81  79  94 SW10G17   29.98S
PINOPOLIS        N/A     79  77  94 SW7       29.89S
MONCKS CORNER  NOT AVBL
SUMMERVILLE    NOT AVBL
BEAUFORT MCAS  PTCLDY    78  77  96 SW6       29.99R
BEAUFORT ARPT  NOT AVBL
HILTON HEAD IS NOT AVBL
WALTERBORO     SUNNY     75  72  88 SW7       29.99S
ALLENDALE      FAIR      77  73  88 VRB3      29.96S

...SOUTHERN MIDLANDS AND PEE DEE...

CITY           SKY/WX    TMP DP  RH WIND       PRES   REMARKS
GEORGETOWN     PTSUNNY   77  77 100 SW10      29.97S
KINGSTREE      FAIR      77  72  83 S3        29.95S
ORANGEBURG     CLEAR     75  73  93 SW6       29.96S
BARNWELL       FAIR      77  77 100 CALM      29.97S
AIKEN          FAIR      73  72  94 SW7       30.00R
MANNING        FAIR      77  75  94 SW18      29.95S
COLUMBIA       PTCLDY    78  73  84 SW7       29.93R
SUMTER         CLEAR     77  73  87 SW10      29.92R
FLORENCE       CLEAR     77  75  93 SW9       29.94R
MYRTLE BEACH   PTCLDY    79  74  84 SW12G18   29.96S
N MYRTLE BEACH PTCLDY    79  75  87 SW16      29.94S

$$

GAZ063-065-086>088-099>101-113>116-118-119-134>141-150-241100-
...SOUTHEAST GEORGIA...

CITY           SKY/WX    TMP DP  RH WIND       PRES   REMARKS
SAVANNAH ARPT  PTCLDY    76  71  85 SW7       30.01R
HUNTER AAF     CLEAR     76  73  91 CALM      29.98R
FORT STEWART   PTCLDY    75  71  89 SW5       29.99R
STATESBORO     CLEAR     76  76 100 S5        29.99S
SYLVANIA       SUNNY     76  76 100 SW5       29.99S
CLAXTON        FAIR      73  73  97 CALM      30.00S

...CSRA...CENTRAL AND FAR SOUTHEAST GEORGIA...

CITY           SKY/WX    TMP DP  RH WIND       PRES   REMARKS
THOMSON        PTCLDY    75  72  90 NW3       30.02R
AUGUSTA-BUSH   CLEAR     77  74  90 S6        29.95S
AUGUSTA-DANIEL CLEAR     78  72  81 SW6       29.97S
SWAINSBORO     FAIR      75  75 100 W3        30.00R
VIDALIA        CLEAR     77  73  88 SW3       29.99F
EASTMAN        FAIR      76  76 100 SW3       30.02R
HAZLEHURST       N/A     76  76 100 SW3       29.99S
ALMA           PTCLDY    74  72  93 S3        30.01R FOG
WAYCROSS       CLEAR     76  76 100 CALM      30.02R
JESUP          FAIR      73  70  88 CALM      30.02R
BAXLEY         FAIR      73  73 100 CALM      30.01R FOG
BRUNSWICK      CLEAR     77  75  94 SW5       30.01R
SAINT SIMONS   CLEAR     79  76  90 SW5       30.00S

$$

SCZ027-028-034-036>038-045-046-048>050-GAZ119-141-241100-
...LAKE AND SUPPLEMENTAL COASTAL OBSERVATIONS...

STATION/POSITION TIME  TEMP    WIND        PRES    WAVE   SWELL
                       AIR SEA DIR/SP/G            HT/PER HT/PER/DIR
                 (UTC) (F)     (DEG/KT/KT) (MB)    (FT/S) (FT/S/D)
WINYAH BAY       NOT AVBL
LAKE MURRAY      0920   80     230/  9/ 12 1012.5
ACE BASIN NERRS  NOT AVBL
FORT PULASKI     0942   79 84  250/  5/  8 1016.1R
SAPELO ISLAND    0900   78     200/  7     1015.0

$$

ANZ835-935-AMZ111-154-330-350-352-354-370-450-454-472-241100-
...C-MAN AND BUOY OBSERVATIONS...

STATION/POSITION TIME  TEMP    WIND        PRES    WAVE   SWELL
                       AIR SEA DIR/SP/G            HT/PER HT/PER/DIR
                 (UTC) (F)     (DEG/KT/KT) (MB)    (FT/S) (FT/S/D)
BUOY 41004       0950   81 81  220/ 21/ 27 1015.1R   6/ 6   2/150/ 9
BUOY 41008       0850   81 82  190/ 17/ 19 1015.1    4/ 5   2/100/ 9
FOLLY BEACH CMAN 0900   81     220/ 19/ 24 1015.6R
CAPERS NEARSHORE 0908   86 82  240/ 19/ 27 1014.5R
FRIPP NEARSHORE  0908   82 83  220/ 17/ 23 1014.8R


STATION/POSITION TIME  TEMP    WIND        PRES    WAVE   SWELL
                       AIR SEA DIR/SP/G            HT/PER HT/PER/DIR
                 (UTC) (F)     (DEG/KT/KT) (MB)    (FT/S) (FT/S/D)
5E ST. MARYS GA  0930      80                N/A     3/ 9
FRYING PAN BUOY  0950   81 80  220/ 21/ 27 1014.5R   7/ 6   2/140/ 9
BUOY 41025       0950   80 79  230/ 23/ 27 1012.4S   7/ 7
CAPE LOOKOUT NC  0900   80     220/ 17/ 23 1013.1S
BUOY 41002       0850   81 81  210/ 16/ 19 1017.2    4/ 9   2/110/ 9
BUOY 41010       0950   82 83  180/ 12/ 14 1017.0F   5/ 9   3/120/ 9
ST AUGUSTINE FL  1000   77 77  210/  5/  6 1016.4R


$$



USA.gov is the U.S. government's official web portal to all federal, state and local government web resources and services.